CZ-6A DEB

Satellite information

Favourite Embed

Satellite Type and Status

DEBRISIN ORBIT

Key statistics

Satellite CZ-6A DEB at a glance.

Uptime

335

Days in orbit

Revolutions

≈ 14.0

Per day

Orbit

LEO

Low Earth Orbit

Inclination

89.1

Latest

Satellite identification and parameters

Extended collection of information and parameters for CZ-6A DEB.

Object identification

Identified? True

Debris? True

Object name: CZ-6A DEB

International designator: 2024-140AAM

Object number (NORAD): 61479

Object ID (CCSDS): 61479

Country: PEOPLES REPUBLIC OF CHINA (PRC)

Current information (Y/N): Y

RCS size: SMALL

Orbital parameters

Period: 102.644 minutes

Inclination: 89.0705 deg

SMA: 7261.883 km

Apoapsis: 1001.624 km

Periapsis: 765.872 km

RAAN: 317.3063 deg

Eccentricy: 0.0162322

Argument of periapsis: 215.8766 deg

Mean anomaly: 143.1429 deg

Mean motion: 14.0290706 rev/day

Mean motion (dot): 0.00000881 rev/day2

B* drag term: 0.00049925 1/REarth

Two-line elements (TLE)

Creation date: July 6, 2025, 4:10 a.m.

Reference frame: TEME

Reference center: EARTH

Epoch: July 5, 2025, 7:47 p.m. UTC

TLE line 0: 0 CZ-6A DEB

TLE line 1: 1 61479U 24140AAM 25186.82457576 .00000881 00000-0 49925-3 0 9993

TLE line 2: 2 61479 89.0705 317.3063 0162322 215.8766 143.1429 14.02907060 44632

Live tracking on map

Real-time ground track for satellite CZ-6A DEB.

In-orbit conjunctions

A list of the most updated potential collisions computed for object CZ-6A DEB.

Target Orbit TCA Probability of collision Miss distance Type
NOAA 16 DEB SSO 2025-02-21 01:38:24 0.0003815208 85.0 (m) DEBRIS
METEOR 2-2 DEB LEO 2025-02-17 17:00:30 0.0001369618 244.0 (m) DEBRIS
CZ-6A DEB LEO 2025-02-17 03:14:57 0.003776005 60.0 (m) DEBRIS
FENGYUN 1C DEB SSO 2024-12-10 05:02:07 0.0005769141 239.0 (m) DEBRIS
COSMOS 1867 COOLANT LEO 2024-11-12 22:34:32 0.00101693 499.0 (m) DEBRIS

Associated space launch

18 Low Earth Orbit communication satellites with Ku, Q and V band payloads for the G60 constellation operated by Shanghai Spacecom Satellite Technology (SSST) with funding backed by the Shanghai local government. Initial constellation will consist of 1296 satellites by 2027 with long term plans to expand it to 12000 satellites.

CZ-6A DEB was lifted into orbit during the mission ‘Long March 6A | G60 Polar Group 01’, on board a Long March 6A space rocket.

The launch took place on Aug. 6, 2024, 6:42 a.m. from Launch Complex 9A.

For more information about the launch, click the button.

Launch to space Long March 6A | G60 Polar Group 01
Long March 6A | G60 Polar Group 01

Agency: N/A

Status: Launch Successful

Launch date: Aug. 6, 2024, 6:42 a.m. UTC

Rocket: Long March 6A

Launch pad: Launch Complex 9A

Location: Taiyuan Satellite Launch Center, People's Republic of China

...

Latest news about this satellite

News about space launch
Brightness of first Chinese broadband constellation satellites alarms astronomers

The first satellites of a Chinese broadband constellation are significantly brighter than those of Western systems, posing a new challenge for astronomers.

News about space launch
Chinese rocket stage breaks up into cloud of more than 700 pieces of space debris

HELSINKI — A Chinese Long March 6A rocket’s upper stage has fragmented into a cloud of over 700 pieces of space debris, adding to concerns about long-term orbital safety. China […]

News about space launch
China's Thousand Sails Megaconstellation Kicks Off with Dangerous Debris Field

China's Thousand Sails Megaconstellation Kicks Off with Dangerous Debris Field


Newsletter sign-up

Weekly statistics, charts and insights to help you stay on top of the space industry.